Fergus Falls, MN

6:44 PM CST on November 13, 2019 (GMT -0600)
Fergus Falls Municipal-Mickelson

Weather History for KFFM - September, 2019

Change the Weather History Date:

Monday, September 2, 2019

  Actual Average Record
Temperature  
Mean Temperature 64 °F -  
Max Temperature 71 °F 75 °F 95 °F (1960)
Min Temperature 57 °F 52 °F 37 °F (1974)
Degree Days  
Heating Degree Days 1    
Growing Degree Days 14 (Base 50)    
Moisture  
Dew Point 56 °F    
Average Humidity 78    
Maximum Humidity 100    
Minimum Humidity 53    
Precipitation  
Precipitation 0.05 in - - ()
Sea Level Pressure  
Sea Level Pressure 30.01 in    
Wind  
Wind Speed 6 mph ()    
Max Wind Speed 28 mph    
Max Gust Speed 36 mph    
Visibility 9.7 miles    
Events Rain , Thunderstorm    
Averages and records for this station are not official NWS values.
T = Trace of Precipitation, MM = Missing Value Source: Averaged Metar Reports

Daily Weather History Graph

Daily Weather History Graph

Search for Another Location

Airport or City:

Astronomy

Sep. 02, 2019 Rise Set
Actual Time 6:46 AM CDT 8:01 PM CDT
Civil Twilight 6:15 AM CDT 8:32 PM CDT
Nautical Twilight 5:37 AM CDT 9:09 PM CDT
Astronomical Twilight 4:57 AM CDT 9:49 PM CDT
Moon 10:41 AM CDT (9/2) 10:10 PM CDT (9/2)
Length of Visible Light 14h 17m
Length of Day
13h 15m
Waxing Crescent, 15% of the Moon is Illuminated
Sep 2
Waxing Crescent
Sep 5
First Quarter
Sep 13
Full
Sep 21
Last Quarter
Sep 28
New

Hourly Weather History & Observations

Time (CDT) Temp. Dew Point Humidity Pressure Visibility Wind Dir Wind Speed Gust Speed Precip Events Conditions
12:16 AM 60.8 °F 57.2 °F 88% 30.10 in 10.0 mi ENE 3.5 mph - N/A   Clear
12:35 AM 60.8 °F 59.0 °F 94% 30.10 in 10.0 mi Calm Calm - N/A   Clear
12:36 AM 60.8 °F 59.0 °F 94% 30.10 in 10.0 mi Calm Calm - N/A   Clear
12:55 AM 60.8 °F 59.0 °F 94% 30.10 in 10.0 mi Calm Calm - N/A   Clear
12:56 AM 60.8 °F 59.0 °F 94% 30.10 in 10.0 mi Calm Calm - N/A   Clear
1:18 AM 60.8 °F 57.2 °F 88% 30.11 in 10.0 mi North 3.5 mph - N/A   Scattered Clouds
1:36 AM 59.0 °F 57.2 °F 94% 30.11 in 10.0 mi Calm Calm - N/A   Scattered Clouds
1:55 AM 60.8 °F 59.0 °F 94% 30.11 in 10.0 mi NNE 3.5 mph - N/A   Mostly Cloudy
2:15 AM 59.0 °F 57.2 °F 94% 30.11 in 10.0 mi NNE 4.6 mph - N/A   Mostly Cloudy
2:16 AM 59.0 °F 57.2 °F 94% 30.11 in 10.0 mi NNE 4.6 mph - N/A   Mostly Cloudy
2:35 AM 60.8 °F 60.8 °F 100% 30.11 in 10.0 mi NNE 3.5 mph - N/A   Scattered Clouds
2:39 AM 60.8 °F 60.8 °F 100% 30.11 in 10.0 mi NE 4.6 mph - N/A   Scattered Clouds
2:58 AM 60.8 °F 59.0 °F 94% 30.11 in 10.0 mi Calm Calm - N/A   Mostly Cloudy
3:15 AM 60.8 °F 60.8 °F 100% 30.11 in 10.0 mi ENE 3.5 mph - N/A   Mostly Cloudy
3:35 AM 60.8 °F 59.0 °F 94% 30.11 in 10.0 mi Calm Calm - N/A   Overcast
3:36 AM 60.8 °F 59.0 °F 94% 30.11 in 10.0 mi Calm Calm - N/A   Overcast
3:55 AM 62.6 °F 60.8 °F 94% 30.11 in 10.0 mi Calm Calm - N/A   Overcast
4:18 AM 60.8 °F 59.0 °F 94% 30.12 in 10.0 mi Calm Calm - N/A   Mostly Cloudy
4:37 AM 60.8 °F 59.0 °F 94% 30.12 in 10.0 mi Calm Calm - N/A   Overcast
4:56 AM 60.8 °F 59.0 °F 94% 30.12 in 10.0 mi Calm Calm - N/A   Overcast
5:15 AM 60.8 °F 59.0 °F 94% 30.12 in 10.0 mi Calm Calm - N/A   Overcast
5:16 AM 60.8 °F 59.0 °F 94% 30.12 in 10.0 mi Calm Calm - N/A   Overcast
5:35 AM 60.8 °F 59.0 °F 94% 30.12 in 10.0 mi East 3.5 mph - N/A   Overcast
5:57 AM 60.8 °F 59.0 °F 94% 30.12 in 10.0 mi East 5.8 mph - N/A   Overcast
6:16 AM 60.8 °F 57.2 °F 88% 30.12 in 10.0 mi East 5.8 mph - N/A   Scattered Clouds
6:35 AM 60.8 °F 57.2 °F 88% 30.13 in 10.0 mi East 4.6 mph - N/A   Clear
6:36 AM 60.8 °F 57.2 °F 88% 30.13 in 10.0 mi East 5.8 mph - N/A   Clear
6:55 AM 59.0 °F 55.4 °F 88% 30.13 in 10.0 mi East 5.8 mph - N/A   Clear
6:56 AM 59.0 °F 55.4 °F 88% 30.13 in 10.0 mi East 4.6 mph - N/A   Clear
7:19 AM 59.0 °F 55.4 °F 88% 30.14 in 10.0 mi East 4.6 mph - N/A   Clear
7:36 AM 60.8 °F 57.2 °F 88% 30.13 in 10.0 mi East 4.6 mph - N/A   Clear
7:56 AM 60.8 °F 57.2 °F 88% 30.13 in 10.0 mi East 5.8 mph - N/A   Clear
8:15 AM 60.8 °F 57.2 °F 88% 30.13 in 10.0 mi ESE 5.8 mph - N/A   Clear
8:16 AM 60.8 °F 57.2 °F 88% 30.13 in 10.0 mi East 5.8 mph - N/A   Clear
8:35 AM 62.6 °F 57.2 °F 82% 30.13 in 10.0 mi East 5.8 mph - N/A   Clear
8:39 AM 62.6 °F 55.4 °F 77% 30.13 in 10.0 mi East 5.8 mph - N/A   Clear
8:58 AM 62.6 °F 55.4 °F 77% 30.13 in 10.0 mi East 6.9 mph - N/A   Clear
9:15 AM 62.6 °F 55.4 °F 77% 30.13 in 10.0 mi East 9.2 mph - N/A   Clear
9:35 AM 62.6 °F 55.4 °F 77% 30.12 in 10.0 mi ESE 9.2 mph - N/A   Clear
9:36 AM 62.6 °F 55.4 °F 77% 30.12 in 10.0 mi ESE 8.1 mph - N/A   Clear
9:55 AM 64.4 °F 55.4 °F 73% 30.12 in 10.0 mi ESE 10.4 mph - N/A   Clear
9:56 AM 64.4 °F 55.4 °F 73% 30.12 in 10.0 mi ESE 10.4 mph - N/A   Clear
10:18 AM 62.6 °F 55.4 °F 77% 30.11 in 10.0 mi ESE 9.2 mph - N/A   Clear
10:37 AM 64.4 °F 55.4 °F 73% 30.10 in 10.0 mi ESE 9.2 mph - N/A   Clear
10:56 AM 64.4 °F 55.4 °F 73% 30.10 in 10.0 mi ESE 9.2 mph - N/A   Clear
11:15 AM 66.2 °F 55.4 °F 68% 30.10 in 10.0 mi ESE 8.1 mph - N/A   Clear
11:16 AM 66.2 °F 55.4 °F 68% 30.10 in 10.0 mi ESE 8.1 mph - N/A   Clear
11:35 AM 66.2 °F 53.6 °F 64% 30.10 in 10.0 mi ESE 9.2 mph - N/A   Clear
11:56 AM 68.0 °F 53.6 °F 60% 30.09 in 10.0 mi SE 11.5 mph - N/A   Clear
12:15 PM 69.8 °F 53.6 °F 56% 30.09 in 10.0 mi SE 9.2 mph - N/A   Clear
12:16 PM 69.8 °F 53.6 °F 56% 30.09 in 10.0 mi SE 10.4 mph - N/A   Clear
12:35 PM 69.8 °F 53.6 °F 56% 30.09 in 10.0 mi SSE 6.9 mph - N/A   Clear
12:36 PM 69.8 °F 53.6 °F 56% 30.09 in 10.0 mi SSE 8.1 mph - N/A   Clear
12:59 PM 69.8 °F 53.6 °F 56% 30.09 in 10.0 mi SE 6.9 mph - N/A   Clear
1:16 PM 69.8 °F 55.4 °F 60% 30.07 in 10.0 mi ESE 8.1 mph - N/A   Clear
1:36 PM 71.6 °F 53.6 °F 53% 30.05 in 10.0 mi ESE 5.8 mph - N/A   Clear
1:55 PM 71.6 °F 55.4 °F 57% 30.03 in 10.0 mi SE 11.5 mph - N/A   Clear
2:15 PM 71.6 °F 53.6 °F 53% 30.01 in 10.0 mi SE 11.5 mph 17.3 mph N/A   Clear
2:19 PM 71.6 °F 53.6 °F 53% 30.00 in 10.0 mi SE 13.8 mph 17.3 mph N/A   Clear
2:37 PM 71.6 °F 53.6 °F 53% 29.99 in 10.0 mi SE 11.5 mph 19.6 mph N/A   Clear
2:55 PM 71.6 °F 53.6 °F 53% 29.99 in 10.0 mi SE 13.8 mph - N/A   Clear
3:15 PM 71.6 °F 53.6 °F 53% 29.98 in 10.0 mi SE 12.7 mph 18.4 mph N/A   Clear
3:16 PM 71.6 °F 53.6 °F 53% 29.98 in 10.0 mi SE 13.8 mph 18.4 mph N/A   Clear
3:35 PM 71.6 °F 53.6 °F 53% 29.97 in 10.0 mi ESE 12.7 mph - N/A   Scattered Clouds
3:36 PM 71.6 °F 55.4 °F 57% 29.97 in 10.0 mi ESE 11.5 mph 18.4 mph N/A   Scattered Clouds
3:58 PM 71.6 °F 55.4 °F 57% 29.95 in 10.0 mi SE 13.8 mph - N/A   Scattered Clouds
4:16 PM 71.6 °F 55.4 °F 57% 29.93 in 10.0 mi ESE 15.0 mph - N/A   Mostly Cloudy
4:35 PM 71.6 °F 55.4 °F 57% 29.91 in 10.0 mi ESE 13.8 mph 18.4 mph N/A   Overcast
4:36 PM 71.6 °F 55.4 °F 57% 29.91 in 10.0 mi ESE 11.5 mph 18.4 mph N/A   Overcast
4:55 PM 71.6 °F 55.4 °F 57% 29.89 in 10.0 mi ESE 11.5 mph - N/A   Overcast
4:56 PM 71.6 °F 55.4 °F 57% 29.89 in 10.0 mi ESE 11.5 mph - N/A   Overcast
5:18 PM 71.6 °F 55.4 °F 57% 29.89 in 10.0 mi SE 13.8 mph 21.9 mph N/A   Overcast
5:36 PM 69.8 °F 55.4 °F 60% 29.87 in 10.0 mi SE 11.5 mph 18.4 mph N/A   Overcast
5:55 PM 69.8 °F 55.4 °F 60% 29.84 in 10.0 mi ESE 18.4 mph 23.0 mph N/A   Overcast
6:15 PM 69.8 °F 55.4 °F 60% 29.85 in 10.0 mi ESE 15.0 mph 21.9 mph N/A   Overcast
6:16 PM 69.8 °F 55.4 °F 60% 29.85 in 10.0 mi ESE 16.1 mph 21.9 mph N/A   Overcast
6:35 PM 69.8 °F 55.4 °F 60% 29.84 in 10.0 mi ESE 12.7 mph 21.9 mph N/A   Overcast
6:40 PM 69.8 °F 55.4 °F 60% 29.84 in 10.0 mi ESE 15.0 mph 20.7 mph N/A   Overcast
6:57 PM 69.8 °F 55.4 °F 60% 29.83 in 10.0 mi ESE 10.4 mph - N/A Thunderstorm Thunderstorm
7:15 PM 68.0 °F 57.2 °F 68% 29.94 in 7.0 mi North 11.5 mph 19.6 mph N/A Rain , Thunderstorm Light Thunderstorms and Rain
7:35 PM 60.8 °F 57.2 °F 88% 30.01 in 0.5 mi NNW 17.3 mph 28.8 mph N/A Rain , Thunderstorm Thunderstorms and Rain
7:36 PM 60.8 °F 57.2 °F 88% 30.02 in 0.5 mi NNW 13.8 mph 28.8 mph 0.01 in Rain , Thunderstorm Thunderstorms and Rain
7:56 PM 59.0 °F 59.0 °F 100% 29.72 in 3.0 mi ESE 27.6 mph 35.7 mph N/A Rain , Thunderstorm Light Thunderstorms and Rain
8:15 PM 59.0 °F 57.2 °F 94% 29.75 in 10.0 mi East 19.6 mph 25.3 mph 0.01 in   Scattered Clouds
8:19 PM 60.8 °F 57.2 °F 88% 29.76 in 10.0 mi East 18.4 mph 28.8 mph 0.01 in   Clear
8:37 PM 60.8 °F 55.4 °F 82% 29.78 in 10.0 mi ESE 15.0 mph 20.7 mph 0.01 in   Scattered Clouds
8:55 PM 60.8 °F 55.4 °F 82% 29.80 in 10.0 mi East 5.8 mph 19.6 mph 0.01 in   Scattered Clouds
9:15 PM 60.8 °F 55.4 °F 82% 29.81 in 10.0 mi SSE 8.1 mph - 0.01 in   Scattered Clouds
9:16 PM 60.8 °F 55.4 °F 82% 29.82 in 10.0 mi South 9.2 mph - 0.01 in   Scattered Clouds
9:35 PM 59.0 °F 55.4 °F 88% 29.82 in 10.0 mi SSW 4.6 mph - 0.01 in   Scattered Clouds
9:58 PM 57.2 °F 55.4 °F 94% 29.81 in 10.0 mi SSE 5.8 mph - N/A   Clear
10:16 PM 57.2 °F 55.4 °F 94% 29.81 in 10.0 mi SE 4.6 mph - N/A   Scattered Clouds
10:35 PM 59.0 °F 57.2 °F 94% 29.80 in 10.0 mi South 6.9 mph - 0.01 in   Mostly Cloudy
10:36 PM 59.0 °F 57.2 °F 94% 29.80 in 10.0 mi SSE 5.8 mph - 0.01 in   Mostly Cloudy
10:55 PM 60.8 °F 57.2 °F 88% 29.79 in 10.0 mi South 6.9 mph - 0.01 in   Overcast
10:56 PM 60.8 °F 57.2 °F 88% 29.79 in 10.0 mi SSE 5.8 mph - N/A   Overcast
11:15 PM 60.8 °F 57.2 °F 88% 29.78 in 10.0 mi SSE 5.8 mph - N/A   Overcast
11:20 PM 60.8 °F 57.2 °F 88% 29.78 in 10.0 mi SSE 6.9 mph - N/A   Overcast
11:37 PM 60.8 °F 57.2 °F 88% 29.78 in 10.0 mi SSE 6.9 mph - 0.01 in   Overcast
11:55 PM 60.8 °F 57.2 °F 88% 29.79 in 10.0 mi Calm Calm - 0.01 in   Overcast